VU3OPZ-13 Weather Reports


Display with metric or nautical units.
time (UTC)temp
F
wind
direction
speed
MPH
gust
MPH
rain 1hr
in
rain 24hr
in
rain mn
in
humidity
%
barometer
mb
20260504191402 76 280 10.0 0.0 0.00 0.00 0.00 73 1009.0
20260504181352 77 278 10.0 0.0 0.00 0.00 0.00 67 1009.0
20260504174347 77 290 11.0 0.0 0.00 0.00 0.00 67 1009.0
20260504171343 79 278 11.0 0.0 0.00 0.00 0.00 59 1009.0
20260504141315 86 272 20.0 0.0 0.00 0.00 0.00 34 1007.0
20260504081222 99 279 14.0 0.0 0.00 0.00 0.00 13 1006.0
20260504045139 91 303 10.0 0.0 0.00 0.00 0.00 24 1010.0
20260504042134 85 297 9.0 0.0 0.00 0.00 0.00 36 1011.0
20260504035130 85 297 9.0 0.0 0.00 0.00 0.00 37 1011.0
20260504032126 79 286 6.0 0.0 0.00 0.00 0.00 56 1011.0
20260504025121 79 286 6.0 0.0 0.00 0.00 0.00 55 1011.0
20260504022116 74 277 6.0 0.0 0.00 0.00 0.00 75 1010.0
20260504015111 74 277 6.0 0.0 0.00 0.00 0.00 75 1010.0
20260504012107 71 270 5.0 0.0 0.00 0.00 0.00 87 1010.0
20260504005101 72 270 5.0 0.0 0.00 0.00 0.00 87 1009.0
20260504002057 72 268 8.0 0.0 0.00 0.00 0.00 87 1009.0
20260503235052 72 261 5.0 0.0 0.00 0.00 0.00 87 1009.0
20260503232048 72 267 9.0 0.0 0.00 0.00 0.00 86 1008.0
20260503225043 72 267 9.0 0.0 0.00 0.00 0.00 86 1008.0
20260503222039 73 267 11.0 0.0 0.00 0.00 0.00 84 1008.0
20260503215034 73 267 11.0 0.0 0.00 0.00 0.00 84 1008.0
20260503212029 74 272 11.0 0.0 0.00 0.00 0.00 81 1008.0
20260503205025 74 272 11.0 0.0 0.00 0.00 0.00 81 1008.0
20260503202019 74 274 11.0 0.0 0.00 0.00 0.00 78 1008.0
20260503195015 74 274 11.0 0.0 0.00 0.00 0.00 78 1008.0